Wind_Speed
47 46 41 38 35 29 30 27 16 19 14 24 26 25 29 33 30 31 23 21 16 15 12 11 13 16 15 14 10 7 7 7 9 8 10 5 3 5 5 8 5 3 4
43 41 43 42 42 38 32 23 24 17 16 26 26 25 29 30 33 29 19 22 23 22 16 13 13 18 17 15 11 12 8 6 9 8 6 7 3 3 4 5 5 2 6
39 39 42 43 42 44 36 32 20 20 22 25 28 29 33 31 26 26 22 22 23 23 18 15 14 19 17 17 14 9 9 7 8 6 5 6 2 2 2 2 1 3 4
41 42 40 40 36 33 36 37 32 30 23 24 27 25 31 33 24 22 19 19 17 20 18 14 17 18 17 16 13 10 9 10 10 9 7 7 4 3 1 4 2 3 3
46 45 44 41 30 29 34 31 23 28 31 31 26 34 33 17 14 19 20 18 16 18 18 18 20 22 20 17 15 13 12 10 13 12 8 8 8 7 1 2 2 3 4
43 41 39 42 37 33 30 29 31 30 27 30 29 36 19 18 16 18 21 24 21 20 22 21 25 21 18 17 14 12 12 11 13 15 10 9 11 9 3 3 7 8 8
45 45 44 41 44 36 33 36 39 40 35 36 36 35 22 19 19 16 20 25 21 20 23 24 26 21 18 16 13 12 12 15 16 16 15 9 12 11 6 5 7 5 7
52 52 50 48 52 48 46 44 48 46 40 41 38 35 32 20 19 19 19 23 23 22 25 26 28 24 17 15 14 11 12 18 16 16 17 11 11 11 9 9 5 6 8
63 62 60 59 57 57 60 54 53 55 55 56 42 43 41 37 22 19 22 28 27 25 29 27 25 20 19 18 7 12 20 17 14 13 16 14 12 14 12 12 9 9 9
69 72 72 66 65 66 67 69 69 65 64 61 56 46 39 37 28 23 23 27 29 31 31 28 23 20 14 11 9 22 19 18 14 13 13 14 14 18 15 14 12 9 9
77 77 77 74 70 70 71 73 77 77 73 70 64 51 50 45 43 29 34 25 30 32 38 34 27 15 13 13 21 21 17 18 15 14 13 16 18 21 17 16 13 11 10
85 82 80 79 76 74 73 76 78 77 74 73 74 64 51 47 52 41 28 29 35 38 38 47 35 24 19 27 20 15 14 18 16 14 14 15 22 21 19 16 13 12 11
87 87 87 85 82 79 76 75 77 76 76 75 73 69 61 56 51 41 30 35 38 43 43 47 38 34 34 35 32 20 17 15 17 16 15 17 22 21 21 16 14 13 12
93 92 88 91 90 88 83 81 71 82 78 80 77 72 67 62 57 50 40 37 42 48 50 45 45 43 41 41 40 28 22 15 18 17 18 20 23 22 20 18 16 15 13
96 97 97 93 91 92 90 85 79 84 85 82 80 73 61 59 58 51 47 44 43 51 52 52 50 46 45 43 40 28 24 15 20 16 21 20 23 24 22 19 18 17 15
96 99 100 100 98 96 94 90 92 76 85 81 82 76 70 61 54 55 48 46 48 54 56 52 52 54 45 44 39 29 25 19 21 18 21 21 23 26 24 21 20 18 15
96 99 101 102 104 104 98 96 96 83 88 86 82 81 73 65 57 59 54 46 50 57 54 54 53 52 52 46 44 31 29 24 25 20 23 25 24 25 26 24 22 19 16
100 99 98 101 104 105 106 104 102 105 95 95 90 87 80 72 64 61 58 54 54 61 55 56 56 55 53 49 49 37 33 28 27 26 23 24 27 27 29 27 24 21 18
110 106 100 97 98 101 106 109 108 105 101 95 94 89 83 77 67 63 58 57 54 63 61 55 57 58 52 55 51 41 40 35 32 33 27 28 31 31 32 30 27 23 20
113 112 109 102 98 100 101 106 110 109 105 98 93 91 86 78 73 68 60 60 58 65 62 58 58 62 61 54 57 47 42 37 35 37 33 29 35 34 34 33 29 26 24
109 112 113 110 102 100 98 102 107 109 107 105 100 91 88 81 79 73 66 59 54 63 66 64 60 62 64 52 50 51 43 40 38 38 37 34 36 38 36 38 32 28 28
109 109 112 116 110 103 99 98 102 105 105 108 103 98 93 87 79 76 74 75 74 72 63 70 65 68 60 56 54 54 51 47 44 42 45 39 37 43 40 40 36 32 29
99 108 110 113 118 111 107 99 98 100 101 102 98 91 97 91 86 81 81 77 72 72 65 70 71 67 64 60 48 59 57 54 52 50 45 39 39 43 44 43 39 36 31
84 101 106 109 115 116 112 107 99 102 98 97 95 92 89 90 91 86 83 84 81 76 74 67 73 72 69 67 53 51 60 56 55 56 48 42 42 44 45 43 43 40 39
70 82 99 103 111 120 118 113 105 103 101 98 99 99 94 94 94 91 84 84 90 83 80 73 77 75 71 72 64 59 57 58 59 58 53 49 42 48 47 43 44 43 40
61 71 86 97 105 116 125 121 110 105 105 102 99 99 102 94 98 96 89 87 88 89 85 77 78 80 78 72 71 67 65 61 61 59 59 54 48 45 44 45 46 44 39
Wind_Direction
241 241 239 237 244 248 250 243 246 227 263 255 230 254 269 283 287 303 294 291 296 293 271 255 246 237 218 225 234 241 251 262 243 213 224 228 303 337 337 352 1 40 97
244 244 242 238 240 246 250 237 234 220 243 250 244 270 273 275 277 291 275 279 284 283 262 256 247 226 210 219 235 235 236 238 237 244 252 201 253 320 342 344 357 105 122
245 244 242 241 243 243 246 231 237 246 219 249 249 264 278 269 266 275 277 274 272 273 260 249 233 209 202 217 227 227 227 228 229 233 205 219 251 350 346 32 339 141 141
239 239 238 242 244 252 248 243 243 238 229 225 245 262 260 272 260 261 264 259 263 267 255 235 202 196 201 205 212 226 226 232 224 234 229 244 259 267 20 71 98 156 175
232 237 238 237 232 230 233 226 230 230 235 231 238 246 258 245 265 260 256 252 233 230 245 219 204 189 196 211 217 214 234 244 235 243 230 259 269 259 244 61 192 167 173
228 231 233 228 229 217 222 215 222 217 223 224 214 222 226 253 272 265 264 260 246 227 229 213 216 204 207 216 213 230 247 248 258 245 247 257 250 244 224 105 167 172 148
227 232 223 231 227 219 228 224 230 222 213 214 216 210 234 254 276 270 250 256 243 227 212 208 200 197 205 221 230 238 251 250 266 245 252 259 246 231 208 151 142 152 142
230 231 227 225 229 227 223 229 234 230 214 222 222 230 233 251 264 270 250 247 236 221 213 208 200 192 209 221 218 225 254 263 266 239 246 256 241 217 196 184 160 161 165
233 231 239 234 227 230 234 232 233 235 236 237 236 237 241 258 258 252 239 232 226 218 209 214 199 190 200 211 218 245 263 263 263 242 245 249 233 203 196 194 174 183 189
234 232 235 238 235 230 235 236 239 238 236 239 238 242 239 255 265 253 272 237 228 219 208 196 184 187 193 191 240 259 260 253 256 238 245 251 219 194 197 197 185 188 199
236 234 233 238 236 237 234 238 238 242 245 244 243 237 248 254 266 254 270 238 224 214 211 206 194 192 211 237 251 250 242 245 248 229 249 244 201 190 198 192 186 192 209
238 237 234 233 234 235 237 238 240 243 246 246 248 244 238 252 260 260 247 246 221 210 207 216 219 230 231 226 223 240 237 238 241 229 242 224 188 189 197 189 188 199 216
236 235 234 232 233 233 233 231 237 240 238 241 244 248 242 246 252 249 243 250 228 214 203 212 212 201 220 220 225 240 238 241 238 229 233 206 191 191 196 192 189 201 218
234 234 233 232 233 233 232 229 230 236 239 242 241 244 245 245 251 252 248 242 228 215 211 205 213 206 212 216 226 234 235 242 228 224 226 204 199 199 202 193 193 204 215
235 232 231 230 230 232 231 228 227 234 238 240 242 241 239 241 247 252 245 244 236 217 211 214 217 213 222 219 217 228 229 228 219 224 221 210 213 207 203 196 195 209 219
234 231 229 229 228 230 230 227 223 223 234 239 242 238 240 243 242 246 242 241 227 223 217 216 217 218 216 222 213 217 228 224 217 218 223 215 214 209 204 197 201 212 220
234 231 229 227 227 226 226 227 220 219 227 232 237 239 238 239 238 239 236 244 231 223 218 218 218 218 214 221 216 204 231 229 210 222 221 218 220 215 207 200 207 207 214
233 230 229 228 226 226 224 225 226 222 227 228 231 238 238 236 235 234 243 242 233 216 218 217 218 216 217 221 225 214 224 231 224 215 217 223 220 215 208 203 208 209 214
233 231 229 226 226 225 224 223 224 224 224 229 231 232 234 235 231 229 234 230 235 218 216 214 221 221 217 223 225 217 220 232 233 214 219 227 220 216 211 209 210 212 220
233 231 232 229 227 227 225 223 223 222 224 224 226 229 231 230 228 225 229 230 231 221 217 214 217 223 222 220 224 217 216 229 230 220 218 226 222 219 215 214 214 217 222
238 232 229 230 228 228 225 225 223 221 222 223 226 223 227 226 227 227 223 214 223 224 219 216 216 219 219 219 225 223 224 227 229 229 220 228 228 221 215 216 218 225 225
236 236 229 227 228 227 226 226 223 222 221 223 227 226 221 224 223 225 221 219 225 231 218 219 214 220 221 222 221 225 226 229 230 230 220 227 229 222 220 216 218 223 228
234 235 233 226 225 227 226 225 224 222 220 221 221 227 226 221 222 222 221 220 214 221 224 220 215 218 221 221 226 225 226 226 229 230 228 225 230 223 221 220 219 219 223
232 231 233 229 225 224 226 225 223 221 218 219 219 213 222 221 221 219 223 219 214 219 227 228 215 217 221 221 215 223 227 223 227 230 232 229 231 225 223 224 220 224 227
237 230 228 227 224 222 222 223 221 221 218 218 218 215 218 221 221 220 222 218 218 219 228 229 216 215 218 222 224 220 223 227 229 231 231 229 231 228 227 224 222 225 225
239 232 227 226 223 221 220 220 220 220 218 218 218 216 215 219 220 222 218 216 217 219 225 226 220 213 217 222 221 222 222 229 231 233 234 235 232 225 223 220 224 222 217
Height
10808 10813 10818 10822 10823 10824 10824 10827 10830 10832 10835 10837 10838 10840 10843 10845 10845 10845 10845 10842 10841 10842 10843 10845 10846 10847 10849 10852 10853 10854 10855 10857 10858 10858 10858 10858 10857 10857 10857 10857 10856 10856 10856
10802 10808 10811 10815 10816 10817 10822 10823 10822 10823 10829 10834 10836 10838 10838 10841 10842 10842 10842 10841 10841 10839 10841 10842 10844 10845 10847 10850 10852 10853 10854 10856 10857 10858 10857 10857 10857 10857 10857 10856 10856 10856 10857
10796 10801 10805 10807 10809 10811 10812 10816 10816 10819 10821 10828 10831 10833 10833 10836 10836 10839 10839 10837 10838 10837 10839 10840 10841 10843 10846 10848 10851 10852 10853 10854 10856 10857 10857 10857 10857 10857 10856 10855 10856 10857 10858
10788 10791 10797 10799 10803 10802 10803 10807 10807 10812 10815 10820 10824 10826 10828 10831 10831 10833 10833 10833 10836 10834 10837 10838 10839 10842 10844 10846 10848 10850 10851 10853 10855 10856 10857 10857 10857 10857 10857 10856 10857 10857 10859
10779 10784 10788 10792 10795 10794 10794 10796 10799 10802 10806 10812 10817 10821 10824 10826 10826 10826 10828 10829 10831 10834 10834 10837 10839 10840 10842 10844 10846 10848 10850 10852 10854 10855 10855 10855 10856 10857 10857 10856 10857 10858 10859
10772 10777 10781 10785 10786 10785 10783 10783 10789 10794 10800 10804 10808 10813 10816 10819 10821 10823 10824 10826 10828 10829 10831 10833 10837 10838 10841 10842 10844 10846 10848 10851 10853 10854 10854 10854 10855 10856 10857 10857 10857 10859 10860
10765 10767 10772 10776 10777 10776 10776 10778 10781 10784 10788 10794 10799 10806 10810 10814 10818 10818 10821 10823 10824 10826 10828 10829 10832 10836 10838 10841 10843 10844 10846 10848 10850 10851 10852 10853 10853 10855 10856 10857 10858 10860 10861
10756 10758 10763 10766 10768 10769 10767 10769 10772 10778 10780 10786 10790 10796 10802 10807 10813 10814 10817 10819 10820 10824 10826 10828 10830 10832 10834 10837 10840 10841 10843 10846 10848 10848 10850 10851 10852 10854 10855 10857 10858 10860 10862
10743 10747 10751 10755 10760 10758 10762 10761 10762 10768 10771 10775 10782 10788 10794 10802 10807 10808 10810 10814 10817 10821 10823 10825 10827 10829 10831 10835 10836 10839 10842 10844 10845 10846 10847 10849 10850 10853 10854 10856 10857 10860 10862
10725 10730 10734 10740 10744 10748 10751 10752 10754 10756 10764 10768 10774 10781 10787 10793 10801 10805 10806 10810 10813 10818 10820 10822 10825 10827 10828 10831 10834 10837 10839 10841 10842 10844 10845 10847 10848 10850 10852 10854 10856 10859 10861
10705 10711 10718 10721 10729 10733 10738 10741 10742 10745 10753 10761 10769 10780 10783 10788 10794 10800 10804 10805 10809 10812 10816 10819 10822 10824 10826 10829 10833 10835 10837 10838 10839 10841 10843 10844 10845 10848 10851 10853 10855 10858 10860
10684 10693 10701 10706 10711 10718 10723 10723 10730 10734 10743 10749 10755 10769 10780 10783 10787 10792 10798 10800 10803 10807 10810 10813 10818 10823 10825 10830 10832 10832 10833 10835 10836 10839 10841 10842 10843 10846 10849 10851 10854 10857 10859
10661 10671 10680 10688 10695 10701 10707 10710 10714 10722 10726 10735 10745 10752 10770 10778 10778 10784 10790 10794 10797 10799 10804 10807 10811 10819 10821 10826 10828 10829 10830 10832 10833 10836 10838 10840 10842 10844 10847 10849 10851 10855 10857
10638 10647 10657 10668 10678 10685 10692 10698 10697 10708 10712 10719 10734 10743 10753 10769 10769 10775 10781 10786 10790 10792 10798 10800 10805 10810 10814 10819 10824 10826 10828 10829 10830 10833 10836 10838 10840 10843 10845 10847 10849 10852 10855
10608 10621 10631 10644 10657 10665 10674 10684 10686 10691 10698 10704 10718 10731 10739 10759 10762 10765 10771 10778 10782 10785 10791 10794 10800 10805 10807 10814 10820 10822 10824 10825 10828 10831 10833 10835 10838 10840 10843 10845 10847 10850 10852
10577 10590 10603 10616 10631 10642 10655 10666 10670 10675 10682 10689 10697 10718 10730 10741 10752 10752 10760 10768 10772 10777 10784 10788 10793 10799 10802 10807 10815 10819 10819 10821 10824 10827 10830 10832 10835 10838 10841 10842 10845 10847 10850
10551 10561 10575 10589 10602 10617 10632 10644 10655 10662 10666 10676 10684 10701 10718 10731 10740 10740 10750 10758 10764 10769 10776 10782 10786 10792 10797 10800 10807 10812 10816 10817 10820 10822 10825 10829 10832 10835 10838 10840 10842 10845 10847
10527 10535 10549 10564 10577 10591 10607 10621 10633 10648 10650 10662 10675 10685 10704 10718 10729 10733 10739 10747 10754 10760 10767 10772 10778 10784 10790 10793 10797 10804 10811 10813 10815 10818 10821 10825 10828 10831 10835 10837 10839 10842 10844
10498 10512 10524 10539 10552 10565 10581 10596 10610 10626 10642 10645 10659 10674 10688 10704 10716 10723 10729 10735 10743 10752 10755 10763 10770 10775 10781 10786 10788 10797 10803 10808 10810 10813 10815 10820 10823 10827 10831 10834 10836 10839 10841
10474 10490 10503 10520 10533 10543 10557 10573 10587 10606 10620 10634 10643 10661 10673 10689 10702 10713 10722 10727 10732 10743 10748 10754 10761 10766 10771 10776 10781 10790 10796 10802 10804 10806 10809 10813 10818 10822 10826 10830 10833 10836 10838
10440 10462 10480 10496 10513 10524 10537 10551 10567 10584 10602 10616 10625 10646 10659 10673 10686 10701 10714 10714 10717 10729 10737 10743 10752 10756 10759 10769 10775 10784 10789 10795 10798 10799 10802 10807 10813 10817 10821 10826 10829 10832 10835
10412 10428 10452 10471 10490 10504 10517 10532 10547 10565 10581 10595 10608 10625 10644 10657 10671 10685 10699 10701 10707 10713 10727 10731 10742 10744 10750 10760 10767 10773 10780 10787 10791 10792 10795 10800 10805 10811 10816 10820 10825 10828 10831
10387 10399 10420 10443 10463 10482 10496 10514 10529 10545 10562 10576 10595 10604 10624 10641 10654 10668 10684 10692 10693 10696 10713 10720 10730 10736 10743 10751 10757 10764 10771 10778 10780 10785 10789 10794 10799 10805 10809 10814 10819 10823 10826
10358 10371 10392 10418 10440 10460 10476 10494 10511 10526 10542 10558 10575 10592 10602 10623 10638 10652 10666 10676 10679 10685 10698 10708 10716 10726 10732 10740 10744 10752 10760 10766 10773 10777 10783 10788 10792 10797 10802 10808 10813 10817 10819
10334 10345 10361 10386 10413 10432 10451 10471 10491 10507 10524 10541 10558 10574 10585 10602 10619 10635 10650 10661 10666 10671 10683 10698 10707 10715 10723 10726 10735 10742 10749 10756 10762 10767 10774 10780 10784 10789 10794 10800 10806 10809 10812
10314 10324 10339 10357 10376 10399 10421 10445 10466 10486 10505 10520 10537 10554 10571 10582 10599 10616 10632 10644 10654 10660 10669 10683 10694 10703 10712 10716 10724 10729 10738 10745 10750 10758 10765 10771 10776 10783 10788 10793 10797 10803 10807